| time (UTC) | temp F | wind direction | speed MPH | gust MPH | rain 1hr in | rain 24hr in | rain mn in | humidity % | barometer mb |
| 20260906134859 | 72 | 107 | 3.0 | 5.0 | 0.00 | 0.00 | 0.00 | 34 | 979.9 |
| 20260906134438 | 72 | 104 | 0.0 | 3.0 | 0.00 | 0.00 | 0.00 | 34 | 979.9 |
| 20260906133958 | 72 | 104 | 1.0 | 1.0 | 0.00 | 0.00 | 0.00 | 34 | 979.8 |
| 20260906133538 | 72 | 132 | 2.0 | 3.0 | 0.00 | 0.00 | 0.00 | 34 | 979.9 |
| 20260906133053 | 71 | 132 | 1.0 | 5.0 | 0.00 | 0.00 | 0.00 | 36 | 979.9 |
| 20260906132643 | 71 | 132 | 4.0 | 7.0 | 0.00 | 0.00 | 0.00 | 36 | 979.9 |
| 20260906132159 | 71 | 132 | 0.0 | 5.0 | 0.00 | 0.00 | 0.00 | 36 | 980.1 |
| 20260906131719 | 74 | 107 | 3.0 | 1.0 | 0.00 | 0.00 | 0.00 | 34 | 980.1 |
| 20260906131259 | 72 | 107 | 1.0 | 1.0 | 0.00 | 0.00 | 0.00 | 34 | 980.1 |
| 20260906130828 | 71 | 107 | 1.0 | 1.0 | 0.00 | 0.00 | 0.00 | 36 | 980.0 |
| 20260906130427 | 73 | 107 | 3.0 | 3.0 | 0.00 | 0.00 | 0.00 | 37 | 979.9 |
| 20260906125958 | 72 | 107 | 0.0 | 1.0 | 0.00 | 0.00 | 0.00 | 37 | 979.9 |
| 20260906125528 | 72 | 107 | 0.0 | 3.0 | 0.00 | 0.00 | 0.00 | 37 | 980.1 |
| 20260906125108 | 69 | 96 | 4.0 | 7.0 | 0.00 | 0.00 | 0.00 | 37 | 980.2 |
| 20260906124633 | 68 | 80 | 3.0 | 5.0 | 0.00 | 0.00 | 0.00 | 41 | 980.1 |
| 20260906124153 | 68 | 336 | 2.0 | 5.0 | 0.00 | 0.00 | 0.00 | 39 | 980.2 |
| 20260906123713 | 68 | 327 | 0.0 | 9.0 | 0.00 | 0.00 | 0.00 | 39 | 980.2 |
| 20260906123238 | 68 | 89 | 0.0 | 3.0 | 0.00 | 0.00 | 0.00 | 39 | 980.4 |
| 20260906122818 | 69 | 349 | 0.0 | 1.0 | 0.00 | 0.00 | 0.00 | 40 | 980.6 |
| 20260906122333 | 70 | 349 | 0.0 | 1.0 | 0.00 | 0.00 | 0.00 | 37 | 980.5 |
| 20260906121903 | 70 | 342 | 0.0 | 7.0 | 0.00 | 0.00 | 0.00 | 37 | 980.5 |
| 20260906121448 | 69 | 345 | 0.0 | 0.0 | 0.00 | 0.00 | 0.00 | 37 | 980.4 |
| 20260906121023 | 71 | 345 | 4.0 | 0.0 | 0.00 | 0.00 | 0.00 | 37 | 980.4 |
| 20260906120558 | 71 | 107 | 2.0 | 0.0 | 0.00 | 0.00 | 0.00 | 37 | 980.5 |
| 20260906120138 | 71 | 0 | 0.0 | 0.0 | 0.00 | 0.00 | 0.00 | 37 | 980.6 |
| 20260906115708 | 69 | 108 | 2.0 | 3.0 | 0.00 | 0.00 | 0.00 | 42 | 980.7 |
| 20260906115239 | 69 | 108 | 0.0 | 5.0 | 0.00 | 0.00 | 0.00 | 42 | 980.7 |
| 20260906114833 | 67 | 14 | 0.0 | 1.0 | 0.00 | 0.00 | 0.00 | 44 | 980.8 |
| 20260906114405 | 67 | 14 | 3.0 | 9.0 | 0.00 | 0.00 | 0.00 | 44 | 980.9 |
| 20260906113959 | 66 | 113 | 5.0 | 7.0 | 0.00 | 0.00 | 0.00 | 44 | 980.8 |
| 20260906113533 | 67 | 106 | 5.0 | 9.0 | 0.00 | 0.00 | 0.00 | 44 | 981.1 |
| 20260906113043 | 67 | 51 | 1.0 | 9.0 | 0.00 | 0.00 | 0.00 | 44 | 981.1 |
| 20260906112618 | 67 | 51 | 3.0 | 7.0 | 0.00 | 0.00 | 0.00 | 44 | 980.9 |
| 20260906112133 | 67 | 99 | 0.0 | 1.0 | 0.00 | 0.00 | 0.00 | 44 | 980.9 |
| 20260906111718 | 67 | 99 | 0.0 | 3.0 | 0.00 | 0.00 | 0.00 | 44 | 981.0 |
| 20260906111233 | 67 | 99 | 0.0 | 9.0 | 0.00 | 0.00 | 0.00 | 44 | 981.0 |
| 20260906110813 | 66 | 105 | 4.0 | 3.0 | 0.00 | 0.00 | 0.00 | 44 | 981.0 |
| 20260906110348 | 65 | 102 | 0.0 | 5.0 | 0.00 | 0.00 | 0.00 | 44 | 981.0 |
| 20260906105900 | 65 | 110 | 1.0 | 5.0 | 0.00 | 0.00 | 0.00 | 44 | 980.8 |
| 20260906105418 | 66 | 114 | 1.0 | 7.0 | 0.00 | 0.00 | 0.00 | 46 | 981.2 |
| 20260906105008 | 67 | 114 | 1.0 | 9.0 | 0.00 | 0.00 | 0.00 | 45 | 981.2 |
| 20260906104528 | 64 | 101 | 1.0 | 3.0 | 0.00 | 0.00 | 0.00 | 45 | 980.9 |
| 20260906104038 | 64 | 126 | 1.0 | 3.0 | 0.00 | 0.00 | 0.00 | 45 | 981.1 |
| 20260906103549 | 64 | 126 | 6.0 | 9.0 | 0.00 | 0.00 | 0.00 | 48 | 981.1 |
| 20260906103118 | 65 | 104 | 3.0 | 7.0 | 0.00 | 0.00 | 0.00 | 48 | 981.1 |
| 20260906102643 | 65 | 147 | 4.0 | 7.0 | 0.00 | 0.00 | 0.00 | 48 | 981.3 |
| 20260906102219 | 65 | 110 | 1.0 | 11.0 | 0.00 | 0.00 | 0.00 | 47 | 981.3 |
| 20260906101748 | 65 | 115 | 1.0 | 9.0 | 0.00 | 0.00 | 0.00 | 45 | 981.4 |
| 20260906101323 | 65 | 115 | 1.0 | 1.0 | 0.00 | 0.00 | 0.00 | 51 | 981.4 |
| 20260906100908 | 63 | 347 | 2.0 | 7.0 | 0.00 | 0.00 | 0.00 | 51 | 981.4 |
| 20260906100418 | 63 | 99 | 2.0 | 1.0 | 0.00 | 0.00 | 0.00 | 51 | 981.5 |
| 20260906095958 | 62 | 357 | 1.0 | 3.0 | 0.00 | 0.00 | 0.00 | 51 | 981.4 |
| 20260906095523 | 61 | 77 | 0.0 | 3.0 | 0.00 | 0.00 | 0.00 | 54 | 981.4 |
| 20260906095029 | 61 | 339 | 1.0 | 3.0 | 0.00 | 0.00 | 0.00 | 54 | 981.6 |
| 20260906094559 | 61 | 339 | 0.0 | 7.0 | 0.00 | 0.00 | 0.00 | 55 | 981.7 |
| 20260906094148 | 63 | 339 | 0.0 | 7.0 | 0.00 | 0.00 | 0.00 | 54 | 981.6 |
| 20260906093653 | 63 | 28 | 8.0 | 3.0 | 0.00 | 0.00 | 0.00 | 54 | 981.7 |
| 20260906093218 | 64 | 112 | 1.0 | 5.0 | 0.00 | 0.00 | 0.00 | 56 | 981.7 |
| 20260906092733 | 60 | 351 | 1.0 | 3.0 | 0.00 | 0.00 | 0.00 | 56 | 981.7 |
| 20260906092248 | 60 | 352 | 2.0 | 5.0 | 0.00 | 0.00 | 0.00 | 56 | 981.6 |
| 20260906091839 | 60 | 352 | 0.0 | 3.0 | 0.00 | 0.00 | 0.00 | 56 | 981.8 |
| 20260906091408 | 60 | 328 | 5.0 | 3.0 | 0.00 | 0.00 | 0.00 | 53 | 981.7 |
| 20260906090953 | 60 | 101 | 0.0 | 3.0 | 0.00 | 0.00 | 0.00 | 56 | 981.8 |
| 20260906090518 | 62 | 341 | 8.0 | 5.0 | 0.00 | 0.00 | 0.00 | 52 | 981.8 |
| 20260906090058 | 62 | 110 | 1.0 | 5.0 | 0.00 | 0.00 | 0.00 | 52 | 981.8 |
| 20260906085613 | 62 | 110 | 2.0 | 5.0 | 0.00 | 0.00 | 0.00 | 52 | 981.9 |
| 20260906085119 | 57 | 110 | 1.0 | 3.0 | 0.00 | 0.00 | 0.00 | 52 | 981.7 |
| 20260906084708 | 57 | 345 | 2.0 | 1.0 | 0.00 | 0.00 | 0.00 | 59 | 981.7 |
| 20260906084225 | 57 | 345 | 7.0 | 5.0 | 0.00 | 0.00 | 0.00 | 59 | 981.8 |
| 20260906083748 | 58 | 325 | 7.0 | 5.0 | 0.00 | 0.00 | 0.00 | 59 | 981.5 |
| 20260906083318 | 58 | 344 | 0.0 | 9.0 | 0.00 | 0.00 | 0.00 | 61 | 981.7 |
| 20260906082843 | 58 | 347 | 1.0 | 3.0 | 0.00 | 0.00 | 0.00 | 59 | 981.8 |
| 20260906082423 | 57 | 15 | 7.0 | 9.0 | 0.00 | 0.00 | 0.00 | 59 | 981.7 |
| 20260906082003 | 57 | 15 | 4.0 | 3.0 | 0.00 | 0.00 | 0.00 | 60 | 981.7 |
| 20260906081538 | 57 | 19 | 3.0 | 3.0 | 0.00 | 0.00 | 0.00 | 60 | 981.7 |
| 20260906081118 | 57 | 334 | 2.0 | 5.0 | 0.00 | 0.00 | 0.00 | 61 | 981.7 |
| 20260906080648 | 58 | 337 | 1.0 | 7.0 | 0.00 | 0.00 | 0.00 | 61 | 981.6 |
| 20260906080203 | 58 | 342 | 1.0 | 1.0 | 0.00 | 0.00 | 0.00 | 61 | 981.5 |
| 20260906075725 | 58 | 341 | 1.0 | 1.0 | 0.00 | 0.00 | 0.00 | 61 | 981.7 |
| 20260906075248 | 56 | 341 | 1.0 | 1.0 | 0.00 | 0.00 | 0.00 | 63 | 981.4 |
| 20260906074753 | 58 | 336 | 8.0 | 5.0 | 0.00 | 0.00 | 0.00 | 63 | 981.4 |
| 20260906074328 | 58 | 69 | 9.0 | 3.0 | 0.00 | 0.00 | 0.00 | 63 | 981.6 |
| 20260906073903 | 57 | 69 | 2.0 | 3.0 | 0.00 | 0.00 | 0.00 | 63 | 981.4 |
| 20260906073423 | 57 | 69 | 0.0 | 3.0 | 0.00 | 0.00 | 0.00 | 68 | 981.3 |
| 20260906072958 | 57 | 0 | 0.0 | 0.0 | 0.00 | 0.00 | 0.00 | 100 | 981.8 |
| 20260906072508 | 56 | 333 | 2.0 | 9.0 | 0.00 | 0.00 | 0.00 | 70 | 981.7 |
| 20260906072023 | 55 | 334 | 2.0 | 7.0 | 0.00 | 0.00 | 0.00 | 69 | 981.4 |
| 20260906071533 | 56 | 340 | 2.0 | 7.0 | 0.00 | 0.00 | 0.00 | 70 | 981.4 |
| 20260906071108 | 56 | 347 | 4.0 | 1.0 | 0.00 | 0.00 | 0.00 | 68 | 981.1 |
| 20260906070618 | 57 | 7 | 1.0 | 3.0 | 0.00 | 0.00 | 0.00 | 68 | 981.2 |
| 20260906070133 | 57 | 7 | 0.0 | 0.0 | 0.00 | 0.00 | 0.00 | 68 | 981.1 |
| 20260906065658 | 59 | 7 | 0.0 | 3.0 | 0.00 | 0.00 | 0.00 | 68 | 981.1 |
| 20260906065213 | 59 | 22 | 1.0 | 1.0 | 0.00 | 0.00 | 0.00 | 68 | 981.2 |
| 20260906064738 | 58 | 66 | 0.0 | 1.0 | 0.00 | 0.00 | 0.00 | 68 | 981.1 |
| 20260906064313 | 58 | 64 | 0.0 | 1.0 | 0.00 | 0.00 | 0.00 | 68 | 981.3 |
| 20260906063843 | 58 | 64 | 0.0 | 1.0 | 0.00 | 0.00 | 0.00 | 67 | 981.3 |
| 20260906063408 | 57 | 64 | 1.0 | 1.0 | 0.00 | 0.00 | 0.00 | 67 | 981.3 |
| 20260906062938 | 57 | 64 | 1.0 | 1.0 | 0.00 | 0.00 | 0.00 | 67 | 981.1 |
| 20260906062513 | 57 | 58 | 1.0 | 1.0 | 0.00 | 0.00 | 0.00 | 67 | 981.1 |
| 20260906062033 | 57 | 39 | 2.0 | 1.0 | 0.00 | 0.00 | 0.00 | 67 | 981.0 |
| 20260906061608 | 56 | 39 | 2.0 | 1.0 | 0.00 | 0.00 | 0.00 | 67 | 981.0 |
| 20260906061153 | 53 | 39 | 2.0 | 1.0 | 0.00 | 0.00 | 0.00 | 69 | 981.0 |
| 20260906060708 | 53 | 39 | 2.0 | 1.0 | 0.00 | 0.00 | 0.00 | 80 | 980.9 |
| 20260906060243 | 53 | 39 | 1.0 | 1.0 | 0.00 | 0.00 | 0.00 | 80 | 980.7 |
| 20260906055803 | 49 | 39 | 1.0 | 1.0 | 0.00 | 0.00 | 0.00 | 80 | 980.9 |
| 20260906055313 | 49 | 39 | 0.0 | 0.0 | 0.00 | 0.00 | 0.00 | 84 | 980.8 |
| 20260906054853 | 49 | 39 | 1.0 | 0.0 | 0.00 | 0.00 | 0.00 | 84 | 981.1 |
| 20260906054428 | 49 | 39 | 1.0 | 1.0 | 0.00 | 0.00 | 0.00 | 84 | 980.7 |
| 20260906054000 | 49 | 39 | 1.0 | 1.0 | 0.00 | 0.00 | 0.00 | 84 | 981.0 |
| 20260906053523 | 48 | 39 | 1.0 | 0.0 | 0.00 | 0.00 | 0.00 | 84 | 980.7 |
| 20260906053108 | 48 | 39 | 1.0 | 0.0 | 0.00 | 0.00 | 0.00 | 84 | 980.8 |
| 20260906052633 | 48 | 39 | 1.0 | 0.0 | 0.00 | 0.00 | 0.00 | 84 | 980.5 |
| 20260906052158 | 48 | 39 | 0.0 | 0.0 | 0.00 | 0.00 | 0.00 | 84 | 980.7 |
| 20260906051728 | 48 | 39 | 0.0 | 0.0 | 0.00 | 0.00 | 0.00 | 89 | 980.6 |
| 20260906051253 | 48 | 39 | 1.0 | 0.0 | 0.00 | 0.00 | 0.00 | 89 | 980.4 |
| 20260906050819 | 48 | 39 | 1.0 | 0.0 | 0.00 | 0.00 | 0.00 | 89 | 980.4 |
| 20260906050348 | 48 | 39 | 1.0 | 0.0 | 0.00 | 0.00 | 0.00 | 90 | 980.6 |
| 20260906045908 | 48 | 39 | 0.0 | 0.0 | 0.00 | 0.00 | 0.00 | 89 | 980.4 |
| 20260906045418 | 48 | 39 | 1.0 | 0.0 | 0.00 | 0.00 | 0.00 | 85 | 980.5 |
| 20260906044943 | 49 | 39 | 0.0 | 0.0 | 0.00 | 0.00 | 0.00 | 85 | 980.4 |
| 20260906044539 | 47 | 39 | 1.0 | 0.0 | 0.00 | 0.00 | 0.00 | 90 | 980.4 |
| 20260906044113 | 47 | 39 | 0.0 | 0.0 | 0.00 | 0.00 | 0.00 | 90 | 980.3 |
| 20260906043628 | 47 | 39 | 0.0 | 0.0 | 0.00 | 0.00 | 0.00 | 90 | 980.2 |
| 20260906043208 | 48 | 39 | 0.0 | 0.0 | 0.00 | 0.00 | 0.00 | 90 | 980.4 |
| 20260906042753 | 48 | 39 | 0.0 | 0.0 | 0.00 | 0.00 | 0.00 | 90 | 980.4 |
| 20260906042339 | 48 | 39 | 0.0 | 0.0 | 0.00 | 0.00 | 0.00 | 91 | 980.4 |
| 20260906041939 | 48 | 39 | 0.0 | 0.0 | 0.00 | 0.00 | 0.00 | 91 | 980.4 |
| 20260906041448 | 47 | 66 | 0.0 | 0.0 | 0.00 | 0.00 | 0.00 | 91 | 980.5 |
| 20260906041048 | 47 | 66 | 0.0 | 0.0 | 0.00 | 0.00 | 0.00 | 91 | 980.3 |
| 20260906040638 | 47 | 66 | 1.0 | 0.0 | 0.00 | 0.00 | 0.00 | 91 | 980.6 |
| 20260906040201 | 47 | 66 | 0.0 | 0.0 | 0.00 | 0.00 | 0.00 | 91 | 980.3 |
| 20260906035748 | 47 | 66 | 0.0 | 0.0 | 0.00 | 0.00 | 0.00 | 90 | 980.4 |
| 20260906035323 | 48 | 66 | 1.0 | 0.0 | 0.00 | 0.00 | 0.00 | 90 | 980.3 |
| 20260906034853 | 48 | 66 | 0.0 | 0.0 | 0.00 | 0.00 | 0.00 | 91 | 980.2 |
| 20260906034443 | 48 | 335 | 0.0 | 1.0 | 0.00 | 0.00 | 0.00 | 91 | 980.2 |
| 20260906034013 | 48 | 335 | 0.0 | 1.0 | 0.00 | 0.00 | 0.00 | 91 | 980.1 |
| 20260906033533 | 48 | 332 | 0.0 | 1.0 | 0.00 | 0.00 | 0.00 | 89 | 979.8 |
| 20260906033045 | 48 | 332 | 0.0 | 3.0 | 0.00 | 0.00 | 0.00 | 89 | 980.1 |
| 20260906032629 | 48 | 76 | 0.0 | 1.0 | 0.00 | 0.00 | 0.00 | 89 | 980.3 |
| 20260906032208 | 48 | 76 | 0.0 | 0.0 | 0.00 | 0.00 | 0.00 | 89 | 979.9 |
| 20260906031743 | 48 | 76 | 0.0 | 0.0 | 0.00 | 0.00 | 0.00 | 89 | 980.1 |
| 20260906031300 | 48 | 76 | 0.0 | 0.0 | 0.00 | 0.00 | 0.00 | 87 | 980.2 |
| 20260906030828 | 49 | 76 | 0.0 | 0.0 | 0.00 | 0.00 | 0.00 | 87 | 980.0 |
| 20260906030350 | 49 | 76 | 0.0 | 0.0 | 0.00 | 0.00 | 0.00 | 87 | 980.0 |
| 20260906025908 | 49 | 76 | 0.0 | 0.0 | 0.00 | 0.00 | 0.00 | 87 | 980.1 |
| 20260906025428 | 49 | 76 | 0.0 | 0.0 | 0.00 | 0.00 | 0.00 | 87 | 980.0 |
| 20260906024933 | 49 | 76 | 0.0 | 1.0 | 0.00 | 0.00 | 0.00 | 87 | 979.8 |
| 20260906024458 | 49 | 76 | 0.0 | 3.0 | 0.00 | 0.00 | 0.00 | 87 | 979.9 |
| 20260906024023 | 49 | 76 | 1.0 | 3.0 | 0.00 | 0.00 | 0.00 | 87 | 979.9 |
| 20260906023550 | 49 | 76 | 1.0 | 3.0 | 0.00 | 0.00 | 0.00 | 87 | 979.9 |
| 20260906023119 | 51 | 76 | 1.0 | 3.0 | 0.00 | 0.00 | 0.00 | 87 | 979.9 |
| 20260906022633 | 51 | 76 | 1.0 | 3.0 | 0.00 | 0.00 | 0.00 | 87 | 979.8 |
| 20260906022228 | 51 | 76 | 1.0 | 1.0 | 0.00 | 0.00 | 0.00 | 87 | 979.7 |
| 20260906021818 | 51 | 76 | 0.0 | 1.0 | 0.00 | 0.00 | 0.00 | 87 | 979.9 |
| 20260906021343 | 51 | 120 | 1.0 | 1.0 | 0.00 | 0.00 | 0.00 | 85 | 979.6 |
| 20260906020908 | 51 | 210 | 0.0 | 1.0 | 0.00 | 0.00 | 0.00 | 85 | 979.6 |
| 20260906020428 | 51 | 210 | 1.0 | 1.0 | 0.00 | 0.00 | 0.00 | 85 | 979.7 |
| 20260906015933 | 51 | 210 | 0.0 | 1.0 | 0.00 | 0.00 | 0.00 | 85 | 979.7 |
| 20260906015533 | 51 | 210 | 0.0 | 1.0 | 0.00 | 0.00 | 0.00 | 85 | 979.7 |
| 20260906015048 | 51 | 210 | 0.0 | 0.0 | 0.00 | 0.00 | 0.00 | 82 | 979.3 |
| 20260906014608 | 51 | 210 | 0.0 | 0.0 | 0.00 | 0.00 | 0.00 | 82 | 979.7 |
| 20260906014128 | 51 | 210 | 0.0 | 0.0 | 0.00 | 0.00 | 0.00 | 82 | 979.4 |
| 20260906013713 | 51 | 210 | 0.0 | 0.0 | 0.00 | 0.00 | 0.00 | 82 | 979.4 |
| 20260906013248 | 51 | 210 | 0.0 | 0.0 | 0.00 | 0.00 | 0.00 | 82 | 979.4 |
| 20260906012808 | 51 | 210 | 0.0 | 1.0 | 0.00 | 0.00 | 0.00 | 82 | 979.8 |
| 20260906012348 | 51 | 210 | 0.0 | 0.0 | 0.00 | 0.00 | 0.00 | 82 | 979.4 |
| 20260906011918 | 51 | 210 | 0.0 | 1.0 | 0.00 | 0.00 | 0.00 | 82 | 979.4 |
| 20260906011448 | 51 | 210 | 0.0 | 1.0 | 0.00 | 0.00 | 0.00 | 82 | 979.3 |
| 20260906011038 | 51 | 210 | 1.0 | 1.0 | 0.00 | 0.00 | 0.00 | 82 | 979.3 |
| 20260906010608 | 51 | 210 | 2.0 | 1.0 | 0.00 | 0.00 | 0.00 | 82 | 979.1 |
| 20260906010138 | 51 | 210 | 0.0 | 0.0 | 0.00 | 0.00 | 0.00 | 82 | 979.3 |
| 20260906005718 | 51 | 210 | 0.0 | 0.0 | 0.00 | 0.00 | 0.00 | 82 | 979.3 |
| 20260906005308 | 51 | 210 | 0.0 | 0.0 | 0.00 | 0.00 | 0.00 | 82 | 979.3 |
| 20260906004818 | 51 | 210 | 0.0 | 0.0 | 0.00 | 0.00 | 0.00 | 82 | 979.1 |
| 20260906004358 | 51 | 210 | 0.0 | 0.0 | 0.00 | 0.00 | 0.00 | 82 | 979.5 |
| 20260906003918 | 51 | 210 | 0.0 | 0.0 | 0.00 | 0.00 | 0.00 | 82 | 979.3 |
| 20260906003439 | 52 | 210 | 0.0 | 0.0 | 0.00 | 0.00 | 0.00 | 82 | 979.3 |
| 20260906003008 | 52 | 210 | 0.0 | 0.0 | 0.00 | 0.00 | 0.00 | 82 | 979.3 |
| 20260906002538 | 52 | 210 | 1.0 | 1.0 | 0.00 | 0.00 | 0.00 | 74 | 979.3 |
| 20260906002109 | 52 | 210 | 0.0 | 1.0 | 0.00 | 0.00 | 0.00 | 74 | 979.2 |
| 20260906001628 | 52 | 210 | 0.0 | 1.0 | 0.00 | 0.00 | 0.00 | 74 | 979.2 |
| 20260906001208 | 52 | 210 | 1.0 | 1.0 | 0.00 | 0.00 | 0.00 | 74 | 979.0 |
| 20260906000728 | 52 | 211 | 0.0 | 1.0 | 0.00 | 0.00 | 0.00 | 74 | 978.9 |
| 20260906000248 | 52 | 211 | 1.0 | 1.0 | 0.00 | 0.00 | 0.00 | 74 | 979.0 |
| 20260905235800 | 52 | 166 | 2.0 | 0.0 | 0.00 | 0.00 | 0.00 | 74 | 979.1 |
| 20260905235338 | 52 | 166 | 1.0 | 0.0 | 0.00 | 0.00 | 0.00 | 74 | 979.0 |
| 20260905234853 | 52 | 166 | 0.0 | 0.0 | 0.00 | 0.00 | 0.00 | 74 | 979.1 |
| 20260905234418 | 52 | 179 | 0.0 | 0.0 | 0.00 | 0.00 | 0.00 | 74 | 978.9 |
| 20260905233928 | 52 | 179 | 0.0 | 0.0 | 0.00 | 0.00 | 0.00 | 74 | 979.0 |
| 20260905233518 | 52 | 153 | 1.0 | 0.0 | 0.00 | 0.00 | 0.00 | 74 | 978.9 |
| 20260905233053 | 54 | 15 | 1.0 | 0.0 | 0.00 | 0.00 | 0.00 | 74 | 978.9 |
| 20260905232618 | 54 | 15 | 1.0 | 0.0 | 0.00 | 0.00 | 0.00 | 74 | 979.0 |
| 20260905232123 | 53 | 15 | 0.0 | 0.0 | 0.00 | 0.00 | 0.00 | 74 | 978.6 |
| 20260905231659 | 53 | 15 | 0.0 | 0.0 | 0.00 | 0.00 | 0.00 | 74 | 978.9 |
| 20260905231228 | 53 | 15 | 0.0 | 0.0 | 0.00 | 0.00 | 0.00 | 74 | 978.7 |
| 20260905230748 | 53 | 15 | 0.0 | 1.0 | 0.00 | 0.00 | 0.00 | 76 | 978.7 |
| 20260905230303 | 53 | 15 | 0.0 | 0.0 | 0.00 | 0.00 | 0.00 | 76 | 978.8 |
| 20260905225828 | 54 | 15 | 0.0 | 0.0 | 0.00 | 0.00 | 0.00 | 73 | 978.8 |
| 20260905225358 | 55 | 15 | 1.0 | 1.0 | 0.00 | 0.00 | 0.00 | 73 | 978.7 |
| 20260905224938 | 55 | 15 | 0.0 | 1.0 | 0.00 | 0.00 | 0.00 | 72 | 978.5 |
| 20260905224458 | 55 | 15 | 0.0 | 1.0 | 0.00 | 0.00 | 0.00 | 72 | 978.6 |
| 20260905224038 | 55 | 15 | 0.0 | 1.0 | 0.00 | 0.00 | 0.00 | 71 | 978.6 |
| 20260905223543 | 56 | 24 | 0.0 | 0.0 | 0.00 | 0.00 | 0.00 | 71 | 978.4 |
| 20260905223058 | 56 | 24 | 0.0 | 1.0 | 0.00 | 0.00 | 0.00 | 69 | 978.6 |
| 20260905222613 | 56 | 2 | 0.0 | 1.0 | 0.00 | 0.00 | 0.00 | 60 | 978.5 |
| 20260905222148 | 56 | 2 | 0.0 | 1.0 | 0.00 | 0.00 | 0.00 | 60 | 978.5 |
| 20260905221653 | 55 | 2 | 1.0 | 1.0 | 0.00 | 0.00 | 0.00 | 60 | 978.3 |
| 20260905221223 | 55 | 294 | 1.0 | 1.0 | 0.00 | 0.00 | 0.00 | 60 | 978.3 |
| 20260905220748 | 55 | 294 | 2.0 | 3.0 | 0.00 | 0.00 | 0.00 | 60 | 978.3 |
| 20260905220318 | 55 | 294 | 2.0 | 1.0 | 0.00 | 0.00 | 0.00 | 60 | 978.2 |
| 20260905215833 | 55 | 294 | 1.0 | 3.0 | 0.00 | 0.00 | 0.00 | 60 | 978.1 |
| 20260905215418 | 55 | 293 | 2.0 | 3.0 | 0.00 | 0.00 | 0.00 | 60 | 978.3 |
| 20260905214948 | 55 | 293 | 1.0 | 3.0 | 0.00 | 0.00 | 0.00 | 60 | 978.5 |
| 20260905214513 | 57 | 293 | 1.0 | 3.0 | 0.00 | 0.00 | 0.00 | 60 | 978.4 |
| 20260905214023 | 57 | 293 | 1.0 | 3.0 | 0.00 | 0.00 | 0.00 | 60 | 978.3 |
| 20260905213553 | 57 | 293 | 1.0 | 3.0 | 0.00 | 0.00 | 0.00 | 60 | 978.5 |
| 20260905213118 | 57 | 292 | 3.0 | 3.0 | 0.00 | 0.00 | 0.00 | 60 | 978.2 |
| 20260905212658 | 57 | 339 | 3.0 | 3.0 | 0.00 | 0.00 | 0.00 | 60 | 978.3 |
| 20260905212218 | 58 | 339 | 1.0 | 1.0 | 0.00 | 0.00 | 0.00 | 60 | 978.3 |
| 20260905211738 | 58 | 339 | 1.0 | 1.0 | 0.00 | 0.00 | 0.00 | 60 | 978.3 |
| 20260905211318 | 58 | 339 | 0.0 | 1.0 | 0.00 | 0.00 | 0.00 | 60 | 978.1 |
| 20260905210858 | 59 | 339 | 0.0 | 1.0 | 0.00 | 0.00 | 0.00 | 60 | 978.3 |
| 20260905210428 | 59 | 339 | 0.0 | 1.0 | 0.00 | 0.00 | 0.00 | 60 | 978.1 |
| 20260905205948 | 59 | 339 | 0.0 | 1.0 | 0.00 | 0.00 | 0.00 | 60 | 978.0 |
| 20260905205523 | 59 | 339 | 0.0 | 1.0 | 0.00 | 0.00 | 0.00 | 60 | 978.0 |
| 20260905205048 | 60 | 339 | 1.0 | 1.0 | 0.00 | 0.00 | 0.00 | 60 | 978.0 |
| 20260905204633 | 60 | 339 | 0.0 | 1.0 | 0.00 | 0.00 | 0.00 | 56 | 977.9 |
| 20260905204158 | 61 | 339 | 0.0 | 1.0 | 0.00 | 0.00 | 0.00 | 56 | 978.0 |
| 20260905203728 | 61 | 339 | 0.0 | 1.0 | 0.00 | 0.00 | 0.00 | 56 | 977.8 |
| 20260905203243 | 61 | 340 | 5.0 | 3.0 | 0.00 | 0.00 | 0.00 | 56 | 978.0 |
| 20260905202818 | 61 | 340 | 5.0 | 3.0 | 0.00 | 0.00 | 0.00 | 56 | 977.7 |
| 20260905202343 | 61 | 295 | 5.0 | 5.0 | 0.00 | 0.00 | 0.00 | 56 | 977.7 |
| 20260905201913 | 61 | 295 | 5.0 | 5.0 | 0.00 | 0.00 | 0.00 | 54 | 977.7 |
| 20260905201443 | 61 | 295 | 5.0 | 5.0 | 0.00 | 0.00 | 0.00 | 54 | 977.4 |
| 20260905201008 | 61 | 348 | 2.0 | 13.0 | 0.00 | 0.00 | 0.00 | 54 | 977.8 |
| 20260905200559 | 61 | 348 | 5.0 | 13.0 | 0.00 | 0.00 | 0.00 | 54 | 977.7 |
| 20260905200139 | 61 | 348 | 5.0 | 3.0 | 0.00 | 0.00 | 0.00 | 54 | 977.5 |
| 20260905195718 | 61 | 348 | 4.0 | 3.0 | 0.00 | 0.00 | 0.00 | 54 | 977.5 |
| 20260905195306 | 61 | 348 | 4.0 | 3.0 | 0.00 | 0.00 | 0.00 | 54 | 977.4 |
| 20260905194843 | 62 | 348 | 4.0 | 3.0 | 0.00 | 0.00 | 0.00 | 54 | 977.3 |
| 20260905194408 | 62 | 303 | 4.0 | 9.0 | 0.00 | 0.00 | 0.00 | 54 | 977.3 |
| 20260905193948 | 62 | 303 | 4.0 | 9.0 | 0.00 | 0.00 | 0.00 | 54 | 977.6 |
| 20260905193503 | 62 | 303 | 4.0 | 9.0 | 0.00 | 0.00 | 0.00 | 54 | 977.2 |
| 20260905193038 | 62 | 303 | 3.0 | 7.0 | 0.00 | 0.00 | 0.00 | 54 | 977.3 |
| 20260905192609 | 62 | 303 | 5.0 | 7.0 | 0.00 | 0.00 | 0.00 | 54 | 977.3 |
| 20260905192138 | 62 | 303 | 3.0 | 7.0 | 0.00 | 0.00 | 0.00 | 54 | 977.2 |
| 20260905191733 | 63 | 303 | 3.0 | 7.0 | 0.00 | 0.00 | 0.00 | 54 | 977.3 |
| 20260905191259 | 63 | 329 | 3.0 | 5.0 | 0.00 | 0.00 | 0.00 | 54 | 977.2 |
| 20260905190828 | 63 | 347 | 3.0 | 7.0 | 0.00 | 0.00 | 0.00 | 54 | 977.4 |
| 20260905190338 | 63 | 347 | 4.0 | 5.0 | 0.00 | 0.00 | 0.00 | 47 | 977.3 |
| 20260905185908 | 63 | 345 | 4.0 | 5.0 | 0.00 | 0.00 | 0.00 | 47 | 977.4 |
| 20260905185433 | 63 | 345 | 1.0 | 3.0 | 0.00 | 0.00 | 0.00 | 47 | 977.3 |
| 20260905185003 | 64 | 345 | 2.0 | 5.0 | 0.00 | 0.00 | 0.00 | 47 | 977.1 |
| 20260905184533 | 64 | 345 | 0.0 | 5.0 | 0.00 | 0.00 | 0.00 | 47 | 977.2 |
| 20260905184108 | 64 | 345 | 4.0 | 7.0 | 0.00 | 0.00 | 0.00 | 47 | 977.1 |
| 20260905183648 | 64 | 345 | 4.0 | 7.0 | 0.00 | 0.00 | 0.00 | 47 | 977.0 |
| 20260905183238 | 64 | 345 | 4.0 | 3.0 | 0.00 | 0.00 | 0.00 | 47 | 977.1 |
| 20260905182808 | 64 | 345 | 4.0 | 3.0 | 0.00 | 0.00 | 0.00 | 47 | 976.9 |
| 20260905182353 | 64 | 337 | 4.0 | 9.0 | 0.00 | 0.00 | 0.00 | 47 | 976.8 |
| 20260905181943 | 64 | 337 | 4.0 | 9.0 | 0.00 | 0.00 | 0.00 | 47 | 977.0 |
| 20260905181458 | 65 | 337 | 5.0 | 7.0 | 0.00 | 0.00 | 0.00 | 47 | 976.8 |
| 20260905181018 | 65 | 330 | 5.0 | 9.0 | 0.00 | 0.00 | 0.00 | 47 | 976.6 |
| 20260905180538 | 65 | 330 | 4.0 | 9.0 | 0.00 | 0.00 | 0.00 | 47 | 976.5 |
| 20260905180128 | 66 | 330 | 6.0 | 7.0 | 0.00 | 0.00 | 0.00 | 47 | 976.5 |
| 20260905175658 | 66 | 330 | 5.0 | 9.0 | 0.00 | 0.00 | 0.00 | 47 | 976.4 |
| 20260905175223 | 66 | 330 | 5.0 | 9.0 | 0.00 | 0.00 | 0.00 | 47 | 976.3 |
| 20260905174748 | 66 | 330 | 5.0 | 7.0 | 0.00 | 0.00 | 0.00 | 47 | 976.3 |
| 20260905174327 | 66 | 0 | 4.0 | 7.0 | 0.00 | 0.00 | 0.00 | 47 | 976.3 |
| 20260905173904 | 68 | 0 | 4.0 | 11.0 | 0.00 | 0.00 | 0.00 | 47 | 976.2 |
| 20260905173458 | 68 | 0 | 5.0 | 9.0 | 0.00 | 0.00 | 0.00 | 47 | 976.2 |
| 20260905173028 | 68 | 0 | 7.0 | 13.0 | 0.00 | 0.00 | 0.00 | 47 | 976.2 |
| 20260905172548 | 68 | 336 | 6.0 | 9.0 | 0.00 | 0.00 | 0.00 | 45 | 976.1 |
| 20260905172113 | 68 | 355 | 6.0 | 11.0 | 0.00 | 0.00 | 0.00 | 45 | 976.1 |
| 20260905171643 | 68 | 345 | 5.0 | 11.0 | 0.00 | 0.00 | 0.00 | 45 | 976.1 |
| 20260905171212 | 68 | 345 | 9.0 | 11.0 | 0.00 | 0.00 | 0.00 | 42 | 976.0 |
| 20260905170748 | 68 | 4 | 9.0 | 22.0 | 0.00 | 0.00 | 0.00 | 42 | 976.0 |
| 20260905170338 | 70 | 4 | 9.0 | 22.0 | 0.00 | 0.00 | 0.00 | 42 | 976.0 |
| 20260905165924 | 70 | 340 | 5.0 | 13.0 | 0.00 | 0.00 | 0.00 | 42 | 975.9 |
| 20260905165438 | 70 | 340 | 5.0 | 14.0 | 0.00 | 0.00 | 0.00 | 42 | 975.9 |
| 20260905165018 | 70 | 356 | 5.0 | 20.0 | 0.00 | 0.00 | 0.00 | 42 | 975.8 |
| 20260905164533 | 70 | 356 | 11.0 | 16.0 | 0.00 | 0.00 | 0.00 | 42 | 976.0 |
| 20260905164113 | 70 | 356 | 11.0 | 16.0 | 0.00 | 0.00 | 0.00 | 42 | 975.8 |
| 20260905163628 | 70 | 356 | 11.0 | 23.0 | 0.00 | 0.00 | 0.00 | 41 | 975.8 |
| 20260905163153 | 70 | 307 | 12.0 | 20.0 | 0.00 | 0.00 | 0.00 | 41 | 975.8 |
| 20260905162733 | 70 | 307 | 7.0 | 20.0 | 0.00 | 0.00 | 0.00 | 41 | 975.6 |
| 20260905162305 | 70 | 293 | 7.0 | 18.0 | 0.00 | 0.00 | 0.00 | 41 | 975.6 |
| 20260905161833 | 70 | 346 | 7.0 | 14.0 | 0.00 | 0.00 | 0.00 | 41 | 975.5 |
| 20260905161418 | 70 | 274 | 7.0 | 16.0 | 0.00 | 0.00 | 0.00 | 41 | 975.2 |
| 20260905161003 | 70 | 349 | 7.0 | 16.0 | 0.00 | 0.00 | 0.00 | 41 | 975.1 |
| 20260905160538 | 70 | 349 | 7.0 | 16.0 | 0.00 | 0.00 | 0.00 | 41 | 975.2 |
| 20260905155643 | 70 | 356 | 9.0 | 31.0 | 0.00 | 0.00 | 0.00 | 41 | 975.1 |
| 20260905155153 | 70 | 335 | 4.0 | 20.0 | 0.00 | 0.00 | 0.00 | 41 | 975.2 |
| 20260905154723 | 70 | 352 | 10.0 | 18.0 | 0.00 | 0.00 | 0.00 | 41 | 975.0 |
| 20260905154238 | 70 | 352 | 11.0 | 18.0 | 0.00 | 0.00 | 0.00 | 41 | 975.0 |
| 20260905153758 | 70 | 358 | 13.0 | 31.0 | 0.00 | 0.00 | 0.00 | 41 | 974.9 |
| 20260905153327 | 70 | 339 | 14.0 | 13.0 | 0.00 | 0.00 | 0.00 | 41 | 975.0 |
| 20260905152843 | 71 | 350 | 14.0 | 23.0 | 0.00 | 0.00 | 0.00 | 41 | 974.9 |
| 20260905152403 | 71 | 347 | 14.0 | 20.0 | 0.00 | 0.00 | 0.00 | 40 | 974.7 |
| 20260905151948 | 71 | 5 | 14.0 | 20.0 | 0.00 | 0.00 | 0.00 | 40 | 975.0 |
| 20260905151533 | 71 | 358 | 16.0 | 23.0 | 0.00 | 0.00 | 0.00 | 40 | 974.9 |
| 20260905151118 | 71 | 287 | 14.0 | 23.0 | 0.00 | 0.00 | 0.00 | 40 | 974.7 |
| 20260905150643 | 71 | 242 | 8.0 | 23.0 | 0.00 | 0.00 | 0.00 | 40 | 974.7 |
| 20260905150208 | 71 | 9 | 8.0 | 22.0 | 0.00 | 0.00 | 0.00 | 40 | 974.9 |
| 20260905145748 | 71 | 284 | 15.0 | 22.0 | 0.00 | 0.00 | 0.00 | 40 | 974.6 |
| 20260905145308 | 71 | 284 | 13.0 | 31.0 | 0.00 | 0.00 | 0.00 | 40 | 974.5 |
| 20260905144858 | 71 | 284 | 13.0 | 25.0 | 0.00 | 0.00 | 0.00 | 40 | 974.4 |
| 20260905144413 | 71 | 286 | 7.0 | 14.0 | 0.00 | 0.00 | 0.00 | 40 | 974.6 |
| 20260905143923 | 71 | 330 | 19.0 | 22.0 | 0.00 | 0.00 | 0.00 | 40 | 974.4 |
| 20260905143513 | 71 | 330 | 9.0 | 20.0 | 0.00 | 0.00 | 0.00 | 40 | 974.5 |
| 20260905143103 | 72 | 11 | 9.0 | 18.0 | 0.00 | 0.00 | 0.00 | 40 | 974.4 |
| 20260905142638 | 72 | 305 | 9.0 | 25.0 | 0.00 | 0.00 | 0.00 | 39 | 974.2 |
| 20260905142153 | 71 | 305 | 13.0 | 29.0 | 0.00 | 0.00 | 0.00 | 41 | 974.7 |
| 20260905141718 | 71 | 91 | 14.0 | 16.0 | 0.00 | 0.00 | 0.00 | 41 | 974.6 |
| 20260905141238 | 71 | 9 | 19.0 | 34.0 | 0.00 | 0.00 | 0.00 | 100 | |
| 20260905140818 | 71 | 282 | 16.0 | 22.0 | 0.00 | 0.00 | 0.00 | 42 | 974.6 |
| 20260905140333 | 71 | 263 | 11.0 | 27.0 | 0.00 | 0.00 | 0.00 | 42 | 974.6 |
| 20260905135838 | 71 | 347 | 7.0 | 18.0 | 0.00 | 0.00 | 0.00 | 42 | 974.4 |
| 20260905135353 | 70 | 8 | 0.0 | 20.0 | 0.00 | 0.00 | 0.00 | 42 | 974.3 |